contact:dominique.lefevre@mio.osupytheas.fr, maurice.libes@osupytheas.fr, didier.mallarino@osupytheas.fr
Project:EMSO http://www.emso-fr.org/EMSO-France
Depth: 2436.0 m
Title:EMSO Ligure Ouest : Data MII capteur CSTAR
DateTime,Latitude,Longitude,Instrument_Serial,Reference_Counts,Signal_Counts,Corrected_Signal_raw_counts,Calculated_Beam_c_inverse_meters,Internal_thermistor_counts
DateTime,Latitude,Longitude,Instrument_Serial,Reference_Counts,Signal_Counts,Corrected_Signal_raw_counts,Calculated_Beam_c_inverse_meters,Internal_thermistor_counts
2020-11-21T00:02:50,42.805,6.029,CST-1368DR,5772,8077,15065,0.144,551
2020-11-21T00:05:52,42.805,6.029,CST-1368DR,5772,8079,15069,0.143,551
2020-11-21T00:08:53,42.805,6.029,CST-1368DR,5772,8080,15070,0.142,551
2020-11-21T00:11:55,42.805,6.029,CST-1368DR,5772,8080,15070,0.142,551
2020-11-21T00:14:57,42.805,6.029,CST-1368DR,5772,8080,15070,0.142,551
2020-11-21T00:17:58,42.805,6.029,CST-1368DR,5772,8080,15071,0.142,551
2020-11-21T00:21:00,42.805,6.029,CST-1368DR,5772,8078,15068,0.143,551
2020-11-21T00:24:01,42.805,6.029,CST-1368DR,5772,8078,15067,0.143,551
2020-11-21T00:27:03,42.805,6.029,CST-1368DR,5772,8078,15067,0.143,551
2020-11-21T00:30:04,42.805,6.029,CST-1368DR,5772,8079,15069,0.143,550
2020-11-21T00:33:06,42.805,6.029,CST-1368DR,5772,8080,15071,0.142,551
2020-11-21T00:36:08,42.805,6.029,CST-1368DR,5772,8078,15067,0.143,551
2020-11-21T00:39:09,42.805,6.029,CST-1368DR,5772,8079,15070,0.142,551
2020-11-21T00:42:11,42.805,6.029,CST-1368DR,5772,8080,15070,0.142,551
2020-11-21T00:45:12,42.805,6.029,CST-1368DR,5772,8078,15066,0.143,551
2020-11-21T00:48:14,42.805,6.029,CST-1368DR,5772,8079,15070,0.142,551
2020-11-21T00:51:16,42.805,6.029,CST-1368DR,5772,8079,15070,0.142,551
2020-11-21T00:54:17,42.805,6.029,CST-1368DR,5772,8080,15071,0.142,551
2020-11-21T00:57:19,42.805,6.029,CST-1368DR,5772,8080,15072,0.142,551
2020-11-21T01:00:20,42.805,6.029,CST-1368DR,5772,8079,15068,0.143,551
2020-11-21T01:03:22,42.805,6.029,CST-1368DR,5772,8080,15070,0.142,551
2020-11-21T01:06:23,42.805,6.029,CST-1368DR,5772,8080,15071,0.142,551
2020-11-21T01:09:25,42.805,6.029,CST-1368DR,5772,8080,15070,0.142,551
2020-11-21T01:12:27,42.805,6.029,CST-1368DR,5772,8079,15069,0.143,551
2020-11-21T01:15:28,42.805,6.029,CST-1368DR,5772,8080,15071,0.142,551
2020-11-21T01:18:30,42.805,6.029,CST-1368DR,5772,8080,15071,0.142,551
2020-11-21T01:21:31,42.805,6.029,CST-1368DR,5772,8080,15070,0.142,551
2020-11-21T01:24:33,42.805,6.029,CST-1368DR,5772,8080,15071,0.142,551
2020-11-21T01:27:34,42.805,6.029,CST-1368DR,5772,8080,15070,0.142,551
2020-11-21T01:30:36,42.805,6.029,CST-1368DR,5772,8080,15071,0.142,551
2020-11-21T01:33:38,42.805,6.029,CST-1368DR,5772,8080,15071,0.142,551
2020-11-21T01:36:39,42.805,6.029,CST-1368DR,5772,8080,15071,0.142,551
2020-11-21T01:39:41,42.805,6.029,CST-1368DR,5772,8080,15071,0.142,551
2020-11-21T01:42:42,42.805,6.029,CST-1368DR,5772,8081,15072,0.142,551
2020-11-21T01:45:44,42.805,6.029,CST-1368DR,5772,8080,15070,0.142,551
2020-11-21T01:48:46,42.805,6.029,CST-1368DR,5772,8080,15071,0.142,550
2020-11-21T01:51:47,42.805,6.029,CST-1368DR,5772,8080,15071,0.142,551
2020-11-21T01:54:49,42.805,6.029,CST-1368DR,5772,8080,15071,0.142,551
2020-11-21T01:57:50,42.805,6.029,CST-1368DR,5772,8080,15071,0.142,551
2020-11-21T02:00:52,42.805,6.029,CST-1368DR,5772,8080,15071,0.142,551
2020-11-21T02:03:53,42.805,6.029,CST-1368DR,5772,8080,15071,0.142,551
2020-11-21T02:06:55,42.805,6.029,CST-1368DR,5772,8080,15072,0.142,551
2020-11-21T02:09:57,42.805,6.029,CST-1368DR,5772,8080,15072,0.142,551
2020-11-21T02:12:58,42.805,6.029,CST-1368DR,5772,8080,15072,0.142,551
2020-11-21T02:16:00,42.805,6.029,CST-1368DR,5772,8080,15071,0.142,551
2020-11-21T02:19:01,42.805,6.029,CST-1368DR,5772,8080,15071,0.142,551
2020-11-21T02:22:03,42.805,6.029,CST-1368DR,5772,8080,15071,0.142,551
2020-11-21T02:25:05,42.805,6.029,CST-1368DR,5772,8080,15071,0.142,551
2020-11-21T02:28:06,42.805,6.029,CST-1368DR,5772,8080,15070,0.142,551
2020-11-21T02:31:08,42.805,6.029,CST-1368DR,5772,8079,15068,0.143,551
2020-11-21T02:34:09,42.805,6.029,CST-1368DR,5772,8079,15070,0.142,551
2020-11-21T02:37:11,42.805,6.029,CST-1368DR,5772,8079,15070,0.142,551
2020-11-21T02:40:12,42.805,6.029,CST-1368DR,5772,8080,15071,0.142,551
2020-11-21T02:43:14,42.805,6.029,CST-1368DR,5772,8079,15070,0.142,551
2020-11-21T02:46:16,42.805,6.029,CST-1368DR,5772,8079,15069,0.143,551
2020-11-21T02:49:17,42.805,6.029,CST-1368DR,5772,8079,15070,0.142,551
2020-11-21T02:52:19,42.805,6.029,CST-1368DR,5772,8079,15069,0.143,551
2020-11-21T02:55:20,42.805,6.029,CST-1368DR,5772,8080,15071,0.142,551
2020-11-21T02:58:22,42.805,6.029,CST-1368DR,5772,8080,15070,0.142,551
2020-11-21T03:01:23,42.805,6.029,CST-1368DR,5772,8080,15070,0.142,551
2020-11-21T03:04:25,42.805,6.029,CST-1368DR,5772,8080,15070,0.142,551
2020-11-21T03:07:27,42.805,6.029,CST-1368DR,5772,8080,15071,0.142,551
2020-11-21T03:10:28,42.805,6.029,CST-1368DR,5772,8080,15071,0.142,551
2020-11-21T03:13:30,42.805,6.029,CST-1368DR,5772,8080,15072,0.142,551
2020-11-21T03:16:31,42.805,6.029,CST-1368DR,5772,8078,15067,0.143,551
2020-11-21T03:19:33,42.805,6.029,CST-1368DR,5772,8079,15070,0.142,550
2020-11-21T03:22:35,42.805,6.029,CST-1368DR,5772,8077,15066,0.143,551
2020-11-21T03:25:36,42.805,6.029,CST-1368DR,5772,8080,15070,0.142,551
2020-11-21T03:28:38,42.805,6.029,CST-1368DR,5772,8080,15070,0.142,551
2020-11-21T03:31:39,42.805,6.029,CST-1368DR,5772,8080,15070,0.142,551
2020-11-21T03:34:41,42.805,6.029,CST-1368DR,5772,8080,15070,0.142,551
2020-11-21T03:37:42,42.805,6.029,CST-1368DR,5772,8080,15070,0.142,551
2020-11-21T03:40:44,42.805,6.029,CST-1368DR,5772,8080,15071,0.142,551
2020-11-21T03:43:46,42.805,6.029,CST-1368DR,5772,8079,15070,0.142,551
2020-11-21T03:46:47,42.805,6.029,CST-1368DR,5772,8078,15066,0.143,551
2020-11-21T03:49:49,42.805,6.029,CST-1368DR,5772,8077,15065,0.144,551
2020-11-21T03:52:50,42.805,6.029,CST-1368DR,5772,8078,15068,0.143,551
2020-11-21T03:55:52,42.805,6.029,CST-1368DR,5772,8078,15066,0.143,551
2020-11-21T03:58:54,42.805,6.029,CST-1368DR,5772,8077,15065,0.144,551
2020-11-21T04:01:55,42.805,6.029,CST-1368DR,5771,8078,15069,0.143,551
2020-11-21T04:04:57,42.805,6.029,CST-1368DR,5771,8079,15071,0.142,551
2020-11-21T04:07:58,42.805,6.029,CST-1368DR,5771,8080,15073,0.142,551
2020-11-21T04:11:00,42.805,6.029,CST-1368DR,5771,8077,15067,0.143,551
2020-11-21T04:14:01,42.805,6.029,CST-1368DR,5771,8079,15072,0.142,551
2020-11-21T04:17:03,42.805,6.029,CST-1368DR,5771,8079,15071,0.142,551
2020-11-21T04:20:05,42.805,6.029,CST-1368DR,5771,8078,15069,0.143,550
2020-11-21T04:23:06,42.805,6.029,CST-1368DR,5771,8078,15069,0.143,550
2020-11-21T04:26:08,42.805,6.029,CST-1368DR,5771,8078,15069,0.143,551
2020-11-21T04:29:09,42.805,6.029,CST-1368DR,5771,8078,15069,0.143,551
2020-11-21T04:32:11,42.805,6.029,CST-1368DR,5771,8079,15071,0.142,551
2020-11-21T04:35:12,42.805,6.029,CST-1368DR,5771,8078,15070,0.142,551
2020-11-21T04:38:14,42.805,6.029,CST-1368DR,5771,8077,15067,0.143,550
2020-11-21T04:41:16,42.805,6.029,CST-1368DR,5771,8078,15069,0.143,551
2020-11-21T04:44:17,42.805,6.029,CST-1368DR,5771,8079,15071,0.142,551
2020-11-21T04:47:19,42.805,6.029,CST-1368DR,5771,8080,15073,0.142,551
2020-11-21T04:50:20,42.805,6.029,CST-1368DR,5771,8079,15072,0.142,551
2020-11-21T04:53:22,42.805,6.029,CST-1368DR,5771,8079,15072,0.142,551
2020-11-21T04:56:24,42.805,6.029,CST-1368DR,5771,8079,15071,0.142,551
2020-11-21T04:59:25,42.805,6.029,CST-1368DR,5771,8079,15071,0.142,551
2020-11-21T05:02:27,42.805,6.029,CST-1368DR,5771,8080,15074,0.141,551
2020-11-21T05:05:28,42.805,6.029,CST-1368DR,5771,8080,15073,0.142,551
2020-11-21T05:08:30,42.805,6.029,CST-1368DR,5771,8079,15071,0.142,551
2020-11-21T05:11:31,42.805,6.029,CST-1368DR,5771,8079,15071,0.142,551
2020-11-21T05:14:33,42.805,6.029,CST-1368DR,5771,8079,15072,0.142,551
2020-11-21T05:17:35,42.805,6.029,CST-1368DR,5772,8080,15072,0.142,551
2020-11-21T05:20:36,42.805,6.029,CST-1368DR,5771,8079,15071,0.142,551
2020-11-21T05:23:38,42.805,6.029,CST-1368DR,5771,8079,15071,0.142,551
2020-11-21T05:26:39,42.805,6.029,CST-1368DR,5771,8079,15071,0.142,550
2020-11-21T05:29:41,42.805,6.029,CST-1368DR,5771,8078,15070,0.142,551
2020-11-21T05:32:43,42.805,6.029,CST-1368DR,5771,8079,15072,0.142,551
2020-11-21T05:35:44,42.805,6.029,CST-1368DR,5771,8080,15073,0.142,550
2020-11-21T05:38:46,42.805,6.029,CST-1368DR,5771,8078,15070,0.142,551
2020-11-21T05:41:47,42.805,6.029,CST-1368DR,5771,8080,15073,0.142,551
2020-11-21T05:44:49,42.805,6.029,CST-1368DR,5771,8080,15073,0.142,551
2020-11-21T05:47:50,42.805,6.029,CST-1368DR,5771,8080,15073,0.142,551
2020-11-21T05:50:52,42.805,6.029,CST-1368DR,5771,8080,15074,0.141,551
2020-11-21T05:53:54,42.805,6.029,CST-1368DR,5771,8079,15072,0.142,551
2020-11-21T05:56:55,42.805,6.029,CST-1368DR,5771,8079,15071,0.142,551
2020-11-21T05:59:57,42.805,6.029,CST-1368DR,5771,8078,15070,0.142,551
2020-11-21T06:02:58,42.805,6.029,CST-1368DR,5771,8080,15073,0.142,551
2020-11-21T06:06:00,42.805,6.029,CST-1368DR,5771,8080,15073,0.142,551
2020-11-21T06:09:01,42.805,6.029,CST-1368DR,5771,8076,15067,0.143,551
2020-11-21T06:12:03,42.805,6.029,CST-1368DR,5771,8079,15072,0.142,551
2020-11-21T06:15:05,42.805,6.029,CST-1368DR,5771,8079,15071,0.142,551
2020-11-21T06:18:06,42.805,6.029,CST-1368DR,5771,8079,15071,0.142,551
2020-11-21T06:21:08,42.805,6.029,CST-1368DR,5771,8078,15070,0.142,551
2020-11-21T06:24:09,42.805,6.029,CST-1368DR,5771,8078,15070,0.142,551
2020-11-21T06:27:11,42.805,6.029,CST-1368DR,5771,8076,15065,0.144,551
2020-11-21T06:30:13,42.805,6.029,CST-1368DR,5771,8078,15069,0.143,551
2020-11-21T06:33:14,42.805,6.029,CST-1368DR,5771,8077,15067,0.143,551
2020-11-21T06:36:16,42.805,6.029,CST-1368DR,5771,8077,15068,0.143,551
2020-11-21T06:39:17,42.805,6.029,CST-1368DR,5771,8077,15068,0.143,551
2020-11-21T06:42:19,42.805,6.029,CST-1368DR,5771,8077,15068,0.143,551
2020-11-21T06:45:20,42.805,6.029,CST-1368DR,5771,8077,15068,0.143,551
2020-11-21T06:48:22,42.805,6.029,CST-1368DR,5771,8078,15070,0.142,551
2020-11-21T06:51:24,42.805,6.029,CST-1368DR,5771,8078,15069,0.143,551
2020-11-21T06:54:25,42.805,6.029,CST-1368DR,5771,8078,15069,0.143,551
2020-11-21T06:57:27,42.805,6.029,CST-1368DR,5771,8078,15070,0.142,551
2020-11-21T07:00:28,42.805,6.029,CST-1368DR,5771,8078,15070,0.142,551
2020-11-21T07:03:30,42.805,6.029,CST-1368DR,5771,8078,15070,0.142,550
2020-11-21T07:06:31,42.805,6.029,CST-1368DR,5771,8078,15070,0.142,551
2020-11-21T07:09:33,42.805,6.029,CST-1368DR,5771,8078,15070,0.142,551
2020-11-21T07:12:35,42.805,6.029,CST-1368DR,5771,8078,15070,0.142,551
2020-11-21T07:15:36,42.805,6.029,CST-1368DR,5771,8078,15070,0.142,550
2020-11-21T07:18:38,42.805,6.029,CST-1368DR,5771,8078,15069,0.143,551
2020-11-21T07:21:39,42.805,6.029,CST-1368DR,5771,8077,15068,0.143,551
2020-11-21T07:24:41,42.805,6.029,CST-1368DR,5771,8077,15068,0.143,551
2020-11-21T07:27:43,42.805,6.029,CST-1368DR,5771,8078,15069,0.143,551
2020-11-21T07:30:44,42.805,6.029,CST-1368DR,5771,8078,15069,0.143,551
2020-11-21T07:33:46,42.805,6.029,CST-1368DR,5771,8077,15068,0.143,551
2020-11-21T07:36:47,42.805,6.029,CST-1368DR,5771,8078,15069,0.143,551
2020-11-21T07:39:49,42.805,6.029,CST-1368DR,5771,8078,15070,0.142,551
2020-11-21T07:42:50,42.805,6.029,CST-1368DR,5771,8076,15066,0.143,551
2020-11-21T07:45:52,42.805,6.029,CST-1368DR,5771,8077,15068,0.143,551
2020-11-21T07:48:54,42.805,6.029,CST-1368DR,5771,8077,15068,0.143,551
2020-11-21T07:51:55,42.805,6.029,CST-1368DR,5771,8078,15069,0.143,551
2020-11-21T07:54:57,42.805,6.029,CST-1368DR,5771,8078,15069,0.143,551
2020-11-21T07:57:58,42.805,6.029,CST-1368DR,5771,8078,15069,0.143,551
2020-11-21T08:01:00,42.805,6.029,CST-1368DR,5771,8077,15068,0.143,551
2020-11-21T08:04:02,42.805,6.029,CST-1368DR,5771,8077,15067,0.143,551
2020-11-21T08:07:03,42.805,6.029,CST-1368DR,5771,8077,15068,0.143,551
2020-11-21T08:10:05,42.805,6.029,CST-1368DR,5771,8078,15070,0.142,551
2020-11-21T08:13:06,42.805,6.029,CST-1368DR,5771,8078,15070,0.142,551
2020-11-21T08:16:08,42.805,6.029,CST-1368DR,5771,8078,15070,0.142,551
2020-11-21T08:19:09,42.805,6.029,CST-1368DR,5771,8078,15070,0.142,551
2020-11-21T08:22:11,42.805,6.029,CST-1368DR,5771,8078,15070,0.142,551
2020-11-21T08:25:13,42.805,6.029,CST-1368DR,5771,8078,15069,0.143,551
2020-11-21T08:28:14,42.805,6.029,CST-1368DR,5771,8078,15070,0.142,551
2020-11-21T08:31:16,42.805,6.029,CST-1368DR,5771,8077,15067,0.143,551
2020-11-21T08:34:17,42.805,6.029,CST-1368DR,5771,8078,15070,0.142,551
2020-11-21T08:37:19,42.805,6.029,CST-1368DR,5771,8078,15069,0.143,551
2020-11-21T08:40:21,42.805,6.029,CST-1368DR,5771,8078,15070,0.142,551
2020-11-21T08:43:22,42.805,6.029,CST-1368DR,5771,8077,15068,0.143,551
2020-11-21T08:46:24,42.805,6.029,CST-1368DR,5771,8078,15070,0.142,551
2020-11-21T08:49:25,42.805,6.029,CST-1368DR,5771,8077,15068,0.143,550
2020-11-21T08:52:27,42.805,6.029,CST-1368DR,5771,8078,15069,0.143,551
2020-11-21T08:55:28,42.805,6.029,CST-1368DR,5771,8076,15066,0.143,551
2020-11-21T08:58:30,42.805,6.029,CST-1368DR,5771,8078,15070,0.142,551
2020-11-21T09:01:32,42.805,6.029,CST-1368DR,5771,8078,15069,0.143,551
2020-11-21T09:04:33,42.805,6.029,CST-1368DR,5771,8078,15069,0.143,551
2020-11-21T09:07:35,42.805,6.029,CST-1368DR,5771,8078,15069,0.143,551
2020-11-21T09:10:36,42.805,6.029,CST-1368DR,5771,8078,15069,0.143,551
2020-11-21T09:13:38,42.805,6.029,CST-1368DR,5771,8078,15069,0.143,551
2020-11-21T09:16:39,42.805,6.029,CST-1368DR,5771,8078,15069,0.143,551
2020-11-21T09:19:41,42.805,6.029,CST-1368DR,5771,8077,15068,0.143,551
2020-11-21T09:22:43,42.805,6.029,CST-1368DR,5771,8078,15069,0.143,551
2020-11-21T09:25:44,42.805,6.029,CST-1368DR,5771,8078,15069,0.143,551
2020-11-21T09:28:46,42.805,6.029,CST-1368DR,5771,8077,15067,0.143,551
2020-11-21T09:31:47,42.805,6.029,CST-1368DR,5771,8078,15069,0.143,551
2020-11-21T09:34:49,42.805,6.029,CST-1368DR,5771,8075,15064,0.144,551
2020-11-21T09:37:51,42.805,6.029,CST-1368DR,5771,8077,15067,0.143,551
2020-11-21T09:40:52,42.805,6.029,CST-1368DR,5771,8077,15068,0.143,551
2020-11-21T09:43:54,42.805,6.029,CST-1368DR,5771,8078,15069,0.143,551
2020-11-21T09:46:55,42.805,6.029,CST-1368DR,5771,8077,15068,0.143,551
2020-11-21T09:49:57,42.805,6.029,CST-1368DR,5771,8077,15068,0.143,551
2020-11-21T09:52:58,42.805,6.029,CST-1368DR,5771,8077,15068,0.143,551
2020-11-21T09:56:00,42.805,6.029,CST-1368DR,5771,8077,15067,0.143,551
2020-11-21T09:59:02,42.805,6.029,CST-1368DR,5771,8074,15063,0.144,551
2020-11-21T10:02:03,42.805,6.029,CST-1368DR,5771,8077,15067,0.143,551
2020-11-21T10:05:05,42.805,6.029,CST-1368DR,5771,8077,15067,0.143,551
2020-11-21T10:08:06,42.805,6.029,CST-1368DR,5771,8077,15067,0.143,551
2020-11-21T10:11:08,42.805,6.029,CST-1368DR,5771,8077,15068,0.143,551
2020-11-21T10:14:10,42.805,6.029,CST-1368DR,5771,8078,15070,0.142,551
2020-11-21T10:17:11,42.805,6.029,CST-1368DR,5771,8078,15069,0.143,551
2020-11-21T10:20:13,42.805,6.029,CST-1368DR,5771,8078,15069,0.143,551
2020-11-21T10:23:14,42.805,6.029,CST-1368DR,5771,8077,15068,0.143,551
2020-11-21T10:26:16,42.805,6.029,CST-1368DR,5771,8077,15067,0.143,551
2020-11-21T10:29:17,42.805,6.029,CST-1368DR,5771,8076,15066,0.143,551
2020-11-21T10:32:19,42.805,6.029,CST-1368DR,5771,8077,15068,0.143,551
2020-11-21T10:35:21,42.805,6.029,CST-1368DR,5771,8077,15068,0.143,551
2020-11-21T10:38:22,42.805,6.029,CST-1368DR,5771,8077,15068,0.143,551
2020-11-21T10:41:24,42.805,6.029,CST-1368DR,5771,8077,15068,0.143,551
2020-11-21T10:44:25,42.805,6.029,CST-1368DR,5771,8078,15069,0.143,551
2020-11-21T10:47:27,42.805,6.029,CST-1368DR,5771,8077,15068,0.143,551
2020-11-21T10:50:28,42.805,6.029,CST-1368DR,5771,8076,15066,0.143,551
2020-11-21T10:53:30,42.805,6.029,CST-1368DR,5771,8077,15068,0.143,551
2020-11-21T10:56:32,42.805,6.029,CST-1368DR,5771,8076,15066,0.143,551
2020-11-21T10:59:33,42.805,6.029,CST-1368DR,5771,8078,15069,0.143,551
2020-11-21T11:02:35,42.805,6.029,CST-1368DR,5771,8077,15068,0.143,551
2020-11-21T11:05:36,42.805,6.029,CST-1368DR,5771,8076,15066,0.143,551
2020-11-21T11:08:38,42.805,6.029,CST-1368DR,5771,8077,15068,0.143,551
2020-11-21T11:11:40,42.805,6.029,CST-1368DR,5771,8078,15069,0.143,551
2020-11-21T11:14:41,42.805,6.029,CST-1368DR,5771,8077,15068,0.143,551
2020-11-21T11:17:43,42.805,6.029,CST-1368DR,5771,8078,15069,0.143,551
2020-11-21T11:20:44,42.805,6.029,CST-1368DR,5771,8077,15068,0.143,550
2020-11-21T11:23:46,42.805,6.029,CST-1368DR,5771,8078,15070,0.142,551
2020-11-21T11:26:47,42.805,6.029,CST-1368DR,5771,8077,15068,0.143,550
2020-11-21T11:29:49,42.805,6.029,CST-1368DR,5771,8078,15070,0.142,551
2020-11-21T11:32:51,42.805,6.029,CST-1368DR,5771,8078,15069,0.143,551
2020-11-21T11:35:52,42.805,6.029,CST-1368DR,5771,8078,15070,0.142,551
2020-11-21T11:38:54,42.805,6.029,CST-1368DR,5771,8077,15068,0.143,551
2020-11-21T11:41:55,42.805,6.029,CST-1368DR,5771,8077,15067,0.143,551
2020-11-21T11:44:57,42.805,6.029,CST-1368DR,5771,8077,15068,0.143,551
2020-11-21T11:47:59,42.805,6.029,CST-1368DR,5771,8077,15068,0.143,551
2020-11-21T11:51:00,42.805,6.029,CST-1368DR,5771,8075,15064,0.144,551
2020-11-21T11:54:02,42.805,6.029,CST-1368DR,5771,8078,15069,0.143,551
2020-11-21T11:57:03,42.805,6.029,CST-1368DR,5771,8078,15069,0.143,551
2020-11-21T12:00:05,42.805,6.029,CST-1368DR,5771,8077,15068,0.143,551
2020-11-21T12:03:06,42.805,6.029,CST-1368DR,5771,8078,15069,0.143,551
2020-11-21T12:06:08,42.805,6.029,CST-1368DR,5771,8078,15069,0.143,551
2020-11-21T12:09:10,42.805,6.029,CST-1368DR,5771,8078,15070,0.142,551
2020-11-21T12:12:11,42.805,6.029,CST-1368DR,5771,8077,15068,0.143,551
2020-11-21T12:15:13,42.805,6.029,CST-1368DR,5771,8076,15065,0.144,551
2020-11-21T12:18:14,42.805,6.029,CST-1368DR,5771,8077,15068,0.143,551
2020-11-21T12:21:16,42.805,6.029,CST-1368DR,5771,8072,15058,0.146,551
2020-11-21T12:24:17,42.805,6.029,CST-1368DR,5771,8077,15067,0.143,551
2020-11-21T12:27:19,42.805,6.029,CST-1368DR,5771,8077,15068,0.143,551
2020-11-21T12:30:21,42.805,6.029,CST-1368DR,5771,8076,15067,0.143,551
2020-11-21T12:33:22,42.805,6.029,CST-1368DR,5771,8077,15068,0.143,551
2020-11-21T12:36:24,42.805,6.029,CST-1368DR,5771,8077,15067,0.143,551
2020-11-21T12:39:25,42.805,6.029,CST-1368DR,5771,8077,15067,0.143,551
2020-11-21T12:42:27,42.805,6.029,CST-1368DR,5771,8077,15067,0.143,551
2020-11-21T12:45:29,42.805,6.029,CST-1368DR,5771,8076,15067,0.143,551
2020-11-21T12:48:30,42.805,6.029,CST-1368DR,5771,8077,15068,0.143,551
2020-11-21T12:51:32,42.805,6.029,CST-1368DR,5771,8077,15068,0.143,551
2020-11-21T12:54:33,42.805,6.029,CST-1368DR,5770,8076,15068,0.143,551
2020-11-21T12:57:35,42.805,6.029,CST-1368DR,5771,8078,15069,0.143,551
2020-11-21T13:00:36,42.805,6.029,CST-1368DR,5770,8077,15069,0.143,551
2020-11-21T13:03:38,42.805,6.029,CST-1368DR,5771,8077,15068,0.143,551
2020-11-21T13:06:40,42.805,6.029,CST-1368DR,5771,8077,15067,0.143,551
2020-11-21T13:09:41,42.805,6.029,CST-1368DR,5771,8077,15067,0.143,551
2020-11-21T13:12:43,42.805,6.029,CST-1368DR,5771,8077,15068,0.143,551
2020-11-21T13:15:44,42.805,6.029,CST-1368DR,5771,8077,15068,0.143,551
2020-11-21T13:18:46,42.805,6.029,CST-1368DR,5770,8074,15064,0.144,551
2020-11-21T13:21:48,42.805,6.029,CST-1368DR,5771,8077,15067,0.143,551
2020-11-21T13:24:49,42.805,6.029,CST-1368DR,5771,8077,15067,0.143,551
2020-11-21T13:27:51,42.805,6.029,CST-1368DR,5771,8077,15067,0.143,551
2020-11-21T13:30:52,42.805,6.029,CST-1368DR,5771,8077,15067,0.143,551
2020-11-21T13:33:54,42.805,6.029,CST-1368DR,5771,8075,15065,0.144,551
2020-11-21T13:36:55,42.805,6.029,CST-1368DR,5770,8077,15071,0.142,551
2020-11-21T13:39:57,42.805,6.029,CST-1368DR,5771,8076,15066,0.143,550
2020-11-21T13:42:59,42.805,6.029,CST-1368DR,5771,8074,15061,0.145,551
2020-11-21T13:46:00,42.805,6.029,CST-1368DR,5770,8076,15068,0.143,551
2020-11-21T13:49:02,42.805,6.029,CST-1368DR,5770,8076,15069,0.143,551
2020-11-21T13:52:03,42.805,6.029,CST-1368DR,5770,8078,15071,0.142,551
2020-11-21T13:55:05,42.805,6.029,CST-1368DR,5770,8077,15070,0.142,551
2020-11-21T13:58:06,42.805,6.029,CST-1368DR,5771,8077,15067,0.143,551
2020-11-21T14:01:08,42.805,6.029,CST-1368DR,5771,8076,15066,0.143,551
2020-11-21T14:04:10,42.805,6.029,CST-1368DR,5770,8077,15070,0.142,551
2020-11-21T14:07:11,42.805,6.029,CST-1368DR,5770,8077,15071,0.142,551
2020-11-21T14:10:13,42.805,6.029,CST-1368DR,5771,8077,15068,0.143,551
2020-11-21T14:13:14,42.805,6.029,CST-1368DR,5770,8077,15070,0.142,551
2020-11-21T14:16:16,42.805,6.029,CST-1368DR,5771,8075,15065,0.144,551
2020-11-21T14:19:18,42.805,6.029,CST-1368DR,5770,8077,15069,0.143,551
2020-11-21T14:22:19,42.805,6.029,CST-1368DR,5770,8077,15069,0.143,551
2020-11-21T14:25:21,42.805,6.029,CST-1368DR,5770,8075,15067,0.143,551
2020-11-21T14:28:22,42.805,6.029,CST-1368DR,5770,8077,15070,0.142,551
2020-11-21T14:31:24,42.805,6.029,CST-1368DR,5770,8077,15070,0.142,551
2020-11-21T14:34:25,42.805,6.029,CST-1368DR,5770,8076,15069,0.143,551
2020-11-21T14:37:27,42.805,6.029,CST-1368DR,5770,8077,15070,0.142,551
2020-11-21T14:40:29,42.805,6.029,CST-1368DR,5770,8077,15070,0.142,551
2020-11-21T14:43:30,42.805,6.029,CST-1368DR,5770,8077,15069,0.143,551
2020-11-21T14:46:32,42.805,6.029,CST-1368DR,5770,8077,15070,0.142,551
2020-11-21T14:49:33,42.805,6.029,CST-1368DR,5770,8076,15069,0.143,551
2020-11-21T14:52:35,42.805,6.029,CST-1368DR,5770,8076,15069,0.143,551
2020-11-21T14:55:36,42.805,6.029,CST-1368DR,5770,8076,15069,0.143,551
2020-11-21T14:58:38,42.805,6.029,CST-1368DR,5770,8077,15070,0.142,551
2020-11-21T15:01:40,42.805,6.029,CST-1368DR,5770,8077,15069,0.143,551
2020-11-21T15:04:41,42.805,6.029,CST-1368DR,5770,8077,15069,0.143,551
2020-11-21T15:07:43,42.805,6.029,CST-1368DR,5770,8075,15067,0.143,551
2020-11-21T15:10:44,42.805,6.029,CST-1368DR,5770,8077,15069,0.143,551
2020-11-21T15:13:46,42.805,6.029,CST-1368DR,5770,8076,15069,0.143,550
2020-11-21T15:16:48,42.805,6.029,CST-1368DR,5770,8076,15068,0.143,551
2020-11-21T15:19:49,42.805,6.029,CST-1368DR,5770,8077,15069,0.143,551
2020-11-21T15:22:51,42.805,6.029,CST-1368DR,5770,8077,15069,0.143,551
2020-11-21T15:25:52,42.805,6.029,CST-1368DR,5770,8075,15067,0.143,551
2020-11-21T15:28:54,42.805,6.029,CST-1368DR,5770,8073,15063,0.144,551
2020-11-21T15:31:55,42.805,6.029,CST-1368DR,5770,8075,15067,0.143,551
2020-11-21T15:34:57,42.805,6.029,CST-1368DR,5770,8077,15069,0.143,551
2020-11-21T15:37:59,42.805,6.029,CST-1368DR,5770,8076,15069,0.143,551
2020-11-21T15:41:00,42.805,6.029,CST-1368DR,5770,8077,15069,0.143,551
2020-11-21T15:44:02,42.805,6.029,CST-1368DR,5770,8077,15070,0.142,551
2020-11-21T15:47:03,42.805,6.029,CST-1368DR,5770,8078,15071,0.142,551
2020-11-21T15:50:05,42.805,6.029,CST-1368DR,5770,8078,15072,0.142,551
2020-11-21T15:53:07,42.805,6.029,CST-1368DR,5770,8077,15071,0.142,551
2020-11-21T15:56:08,42.805,6.029,CST-1368DR,5770,8076,15068,0.143,550
2020-11-21T15:59:10,42.805,6.029,CST-1368DR,5770,8077,15070,0.142,551
2020-11-21T16:02:11,42.805,6.029,CST-1368DR,5770,8077,15069,0.143,551
2020-11-21T16:05:13,42.805,6.029,CST-1368DR,5770,8077,15069,0.143,551
2020-11-21T16:08:14,42.805,6.029,CST-1368DR,5770,8076,15069,0.143,551
2020-11-21T16:11:16,42.805,6.029,CST-1368DR,5770,8076,15068,0.143,551
2020-11-21T16:14:18,42.805,6.029,CST-1368DR,5770,8076,15069,0.143,551
2020-11-21T16:17:19,42.805,6.029,CST-1368DR,5770,8075,15067,0.143,551
2020-11-21T16:20:21,42.805,6.029,CST-1368DR,5770,8077,15069,0.143,551
2020-11-21T16:23:22,42.805,6.029,CST-1368DR,5770,8076,15069,0.143,551
2020-11-21T16:26:24,42.805,6.029,CST-1368DR,5770,8076,15068,0.143,551
2020-11-21T16:29:25,42.805,6.029,CST-1368DR,5770,8076,15069,0.143,551
2020-11-21T16:32:27,42.805,6.029,CST-1368DR,5770,8077,15069,0.143,551
2020-11-21T16:35:29,42.805,6.029,CST-1368DR,5770,8075,15066,0.143,551
2020-11-21T16:38:30,42.805,6.029,CST-1368DR,5770,8077,15070,0.142,551
2020-11-21T16:41:32,42.805,6.029,CST-1368DR,5770,8076,15069,0.143,551
2020-11-21T16:44:33,42.805,6.029,CST-1368DR,5770,8076,15069,0.143,551
2020-11-21T16:47:35,42.805,6.029,CST-1368DR,5770,8077,15069,0.143,551
2020-11-21T16:50:37,42.805,6.029,CST-1368DR,5770,8077,15070,0.142,551
2020-11-21T16:53:38,42.805,6.029,CST-1368DR,5770,8077,15069,0.143,551